Simultaneous Nadir Overpasses (SNOs) Predictions

Prediction of SNOs between NOAA-20 and NOAA-19 Satellite Orbit:

Table of predicted SNOs for the next 14.0 days since TLE Epoch: 2/1/2019
Index Date (NOAA-20) Time (NOAA-20) Lat,Lon (NOAA-20) SZA (NOAA-20 ) Date (NOAA-19) Time (NOAA-19) Lat,Lon (NOAA-19) SZA (NOAA-19 ) Distance(km) Time Diff (sec)
1 02/08/2019 19:36:40 -80.22, 24.47 82.17 02/08/2019 19:35:34 -80.24, 24.36 82.11 3.20 66
2 02/08/2019 20:27:26 80.25,-168.52 97.88 02/08/2019 20:26:29 80.24,-168.39 97.89 2.35 57
3 02/08/2019 21:18:11 -80.25, -1.24 82.14 02/08/2019 21:17:35 -80.24, -1.16 82.13 1.65 36
4 02/08/2019 22:08:56 80.25, 166.09 97.86 02/08/2019 22:08:30 80.24, 166.09 97.86 0.82 26
5 02/08/2019 22:59:41 -80.25, -26.63 82.15 02/08/2019 22:59:36 -80.24, -26.68 82.15 1.41 5
6 02/08/2019 23:50:26 80.25, 140.70 97.84 02/08/2019 23:50:31 80.24, 140.57 97.84 2.77 5
7 02/09/2019 00:41:11 -80.25, -52.02 82.17 02/09/2019 00:41:36 -80.26, -51.87 82.20 2.99 25
8 02/09/2019 01:31:56 80.25, 115.31 97.82 02/09/2019 01:32:31 80.26, 115.37 97.80 1.51 35
9 02/09/2019 02:22:41 -80.25, -77.41 82.19 02/09/2019 02:23:37 -80.26, -77.39 82.22 0.80 56




NCC Satellite Simultaneous Nadir Overpasses (SNOs) Prediction Service
